User: anonymous   Login
Location: Unspecified
(0.0000°N, 0.0000°E)
Time: 11:42:07
(UTC+00:00)
Language:

XW-2F - Orbit

View from above orbital plane
View from above orbital plane
View from above satellite
View from above satellite

Ground track
Ground track

The orbit data is extracted from the following two-line orbital elements,

1 40910U 15049M   18018.22655959  .00000939  00000-0  51931-4 0  9998
2 40910  97.4560  25.2732 0015190 178.1661 181.9630 15.16201413128726
Epoch (UTC): 18 January 2018 05:26:14
Eccentricity: 0.0015190
inclination: 97.4560°
perigee height: 507 km
apogee height: 528 km
right ascension of ascending node: 25.2732°
argument of perigee: 178.1661°
revolutions per day: 15.16201413
mean anomaly at epoch: 181.9630°
orbit number at epoch: 12872

The dashed part of the orbit path shows where the satellite is in the earth's shadow,  

DLR